This demonstration page uses our WeatherBlox Daily Observations layout. Learn more.

Left ArrowRight Arrow

Hourly Observations for March 8, 2019

Temp ( °F °C ) Dew Point ( °F °C ) Humidity (%) Winds ( mph kmh ) Pressure ( in mb ) Visibility ( mi km ) Precip ( " mm )
12:57 am 00:57 Cloudy with Mist and Fog 25 -3.9 24 -4.4 96 96 SSE 3 6 30.04 1017 4 6 0.00 0.00
1:57 am 01:57 Cloudy with Mist and Fog 26 -3.3 24 -4.4 92 92 SE 5 7 30.03 1017 5 8 0.00 0.00
2:57 am 02:57 Cloudy with Mist and Fog 26 -3.3 24 -4.4 92 92 SSE 6 9 30.01 1016 4 6 0.00 0.00
3:57 am 03:57 Cloudy with Mist and Fog 25 -3.9 24 -4.4 96 96 SSW 6 9 30.01 1016 3 5 0.00 0.00
4:07 am 04:07 Cloudy with Mist and Fog 25 -4 25 -4 100 100 SSW 5 7 30.07 1018 2 3 0.00 0.00
4:22 am 04:22 Cloudy with Mist and Fog 25 -4 25 -4 100 100 S 3 6 30.07 1018 2 3 0.00 0.00
4:57 am 04:57 Cloudy with Mist and Fog 25 -3.9 24 -4.4 96 96 SSE 6 9 30.00 1016 2 2 0.00 0.00
5:16 am 05:16 Cloudy with Mist and Fog 25 -4 25 -4 100 100 SSE 7 11 30.07 1018 1 1 0.00 0.00
5:26 am 05:26 Cloudy with Freezing Fog 25 -4 25 -4 100 100 SSE 7 11 30.07 1018 1 1 0.00 0.00
5:57 am 05:57 Cloudy with Mist and Fog 24 -4.4 23 -5 96 96 S 9 15 30.02 1017 1 1 0.00 0.00
6:12 am 06:12 Cloudy with Freezing Fog 25 -4 23 -5 93 93 SSW 6 9 30.08 1018 1 1 0.00 0.00
6:57 am 06:57 Cloudy with Freezing Fog 24 -4.4 23 -5 96 96 SSE 7 11 30.01 1016 0 0 0.00 0.00
7:57 am 07:57 Cloudy with Freezing Fog 25 -3.9 24 -4.4 96 96 SE 7 11 30.00 1016 0 0 0.00 0.00
8:57 am 08:57 Cloudy with Freezing Fog 26 -3.3 25 -3.9 96 96 SE 6 9 30.01 1016 0 0 0.00 0.00
9:57 am 09:57 Cloudy with Freezing Fog 26 -3.3 24 -4.4 92 92 S 9 15 30.02 1017 0 0 0.00 0.00
10:29 am 10:29 Cloudy with Freezing Fog 27 -3 25 -4 93 93 SSE 5 7 30.07 1018 1 1 0.00 0.00
10:57 am 10:57 Cloudy with Freezing Fog 29 -1.7 26 -3.3 89 89 SSE 8 13 29.99 1016 1 1 0.00 0.00
11:17 am 11:17 Cloudy with Mist and Fog 28 -2 27 -3 93 93 SSE 7 11 30.03 1017 1 2 0.00 0.00
11:26 am 11:26 Cloudy with Mist and Fog 28 -2 27 -3 93 93 SSE 10 17 30.04 1017 1 1 0.00 0.00
11:31 am 11:31 Cloudy with Mist and Fog 28 -2 25 -4 86 86 SSE 10 17 30.04 1017 1 2 0.00 0.00
11:36 am 11:36 Cloudy with Mist and Fog 28 -2 25 -4 86 86 SE 10 17 30.03 1017 1 1 0.00 0.00
11:57 am 11:57 Cloudy with Mist and Fog 29 -1.7 26 -3.3 89 89 SSE 8 13 29.99 1016 1 1 0.00 0.00
12:06 pm 12:06 Cloudy with Mist and Fog 28 -2 25 -4 86 86 SSE 12 19 30.04 1017 1 2 0.00 0.00
12:29 pm 12:29 Cloudy with Mist and Fog 30 -1 27 -3 86 86 SSE 8 13 30.03 1017 2 2 0.00 0.00
12:57 pm 12:57 Cloudy with Mist and Fog 30 -1.1 26 -3.3 85 85 S 10 17 29.98 1015 3 4 0.00 0.00
1:17 pm 13:17 Cloudy with Mist and Fog 30 -1 27 -3 86 86 SSE 9 15 30.00 1016 3 5 0.00 0.00
1:57 pm 13:57 Cloudy with Haze 32 0 27 -2.8 82 82 SE 8 13 29.93 1013 3 5 0.00 0.00
2:29 pm 14:29 Cloudy with Haze 34 1 27 -3 75 75 SE 10 17 29.93 1014 3 4 0.00 0.00
2:46 pm 14:46 Cloudy with Mist and Fog 30 -1 27 -3 86 86 SSE 9 15 29.94 1014 3 5 0.00 0.00
2:57 pm 14:57 Cloudy with Mist and Fog 31 -0.6 28 -2.2 89 89 SE 12 19 29.89 1012 3 5 0.00 0.00
3:35 pm 15:35 Cloudy with Mist and Fog 30 -1 27 -3 86 86 SE 10 17 29.92 1013 4 6 0.00 0.00
3:57 pm 15:57 Cloudy with Mist and Fog 32 0 28 -2.2 85 85 SE 10 17 29.86 1011 4 6 0.00 0.00
4:57 pm 16:57 Cloudy with Mist and Fog 30 -1.1 27 -2.8 88 88 SE 13 20 29.83 1010 3 4 0.00 0.00
5:26 pm 17:26 Cloudy with Mist and Fog 28 -2 27 -3 93 93 SE 13 20 29.88 1012 2 3 0.00 0.00
5:37 pm 17:37 Cloudy with Mist and Fog 28 -2 27 -3 93 93 SE 15 24 29.88 1012 1 1 0.00 0.00
5:49 pm 17:49 Cloudy with Freezing Fog 28 -2 27 -3 93 93 SE 13 20 29.88 1012 1 1 0.00 0.00
5:57 pm 17:57 Cloudy with Freezing Fog 29 -1.7 27 -2.8 92 92 SE 15 24 29.82 1010 1 1 0.00 0.00
6:06 pm 18:06 Cloudy with Freezing Fog 28 -2 28 -2 100 100 SE 14 22 29.87 1011 0 0 0.00 0.00
6:57 pm 18:57 Cloudy with Freezing Fog 31 -0.6 30 -1.1 96 96 SE 18 30 29.79 1009 0 0 0.00 0.03
7:06 pm 19:06 Cloudy with Freezing Fog 30 -1 30 -1 100 100 SE 20 31 29.83 1010 1 1 0.00 0.00
7:15 pm 19:15 Cloudy with Light Snow 30 -1 30 -1 100 100 SE 17 28 29.83 1010 1 1 0.00 0.00
7:32 pm 19:32 Cloudy with Freezing Fog 30 -1 30 -1 100 100 ESE 14 22 29.82 1010 1 1 0.00 0.00
7:57 pm 19:57 Cloudy with Freezing Fog 31 -0.6 30 -1.1 96 96 ESE 15 24 29.78 1008 1 1 0.00 0.03
8:57 pm 20:57 Cloudy with Fog 32 0 31 -0.6 96 96 ESE 17 28 29.74 1007 1 1 0.00 0.00
9:34 pm 21:34 Cloudy with Mist and Fog 32 0 30 -1 93 93 ESE 16 26 29.76 1008 1 1 0.00 0.00
9:57 pm 21:57 Cloudy with Light Snow 32 0 31 -0.6 96 96 ESE 18 30 29.71 1006 1 2 0.00 0.03
10:08 pm 22:08 Cloudy with Light Snow 32 0 30 -1 93 93 ESE 17 28 29.74 1007 1 2 0.00 0.00
10:57 pm 22:57 Cloudy with Light Snow 32 0 31 -0.6 96 96 ESE 18 30 29.67 1005 2 3 0.00 0.03
11:10 pm 23:10 Cloudy with Mist and Fog 32 0 30 -1 93 93 ESE 21 33 29.71 1006 2 3 0.00 0.03
11:57 pm 23:57 Cloudy with Light Wintry Mix 32 0 31 -0.6 96 96 ESE 22 35 29.62 1003 3 4 0.00 0.03

Powered by AerisWeather